This demonstration page uses our WeatherBlox Daily Observations layout. Learn more.

Left ArrowRight Arrow

Hourly Observations for February 17, 2022

Temp ( °F °C ) Dew Point ( °F °C ) Humidity (%) Winds ( mph kmh ) Pressure ( in mb ) Visibility ( mi km ) Precip ( " mm )
12:56 am 00:56 Cloudy 23 -5 11 -11.7 60 60 NNE 23 37 30.24 1024 10 16 0.00 0.00
1:56 am 01:56 Cloudy 21 -6.1 6 -14.4 52 52 N 28 44 30.20 1023 10 16 0.00 0.00
2:56 am 02:56 Mostly Cloudy 18 -7.8 0 -17.8 45 45 N 24 39 30.25 1025 10 16 0.00 0.00
3:56 am 03:56 Cloudy 17 -8.3 -3 -19.4 41 41 N 23 37 30.29 1026 10 16 0.00 0.00
4:56 am 04:56 Cloudy 16 -8.9 -3 -19.4 43 43 N 15 24 30.32 1027 10 16 0.00 0.00
5:56 am 05:56 Mostly Cloudy 15 -9.4 -3 -19.4 44 44 N 18 30 30.33 1027 10 16 0.00 0.00
6:56 am 06:56 Clear 13 -10.6 -5 -20.6 44 44 N 22 35 30.37 1028 10 16 0.00 0.00
7:56 am 07:56 Sunny 13 -10.6 -5 -20.6 44 44 N 17 28 30.38 1029 10 16 0.00 0.00
8:56 am 08:56 Sunny 12 -11.1 -7 -21.7 42 42 N 16 26 30.39 1029 10 16 0.00 0.00
9:56 am 09:56 Sunny 14 -10 -5 -20.6 42 42 NNW 16 26 30.40 1030 10 16 0.00 0.00
10:56 am 10:56 Sunny 17 -8.3 -5 -20.6 37 37 N 10 17 30.41 1030 10 16 0.00 0.00
11:56 am 11:56 Sunny 21 -6.1 -4 -20 33 33 NNW 8 13 30.40 1029 10 16 0.00 0.00
12:56 pm 12:56 Sunny 24 -4.4 -4 -20 29 29 N 10 17 30.34 1028 10 16 0.00 0.00
1:56 pm 13:56 Sunny 28 -2.2 -3 -19.4 26 26 NW 8 13 30.31 1026 10 16 0.00 0.00
2:56 pm 14:56 Sunny 30 -1.1 -3 -19.4 24 24 VRB 7 11 30.28 1025 10 16 0.00 0.00
3:56 pm 15:56 Sunny 33 0.6 -7 -21.7 17 17 SW 6 9 30.25 1024 10 16 0.00 0.00
4:56 pm 16:56 Sunny 33 0.6 -6 -21.1 18 18 SW 12 19 30.24 1024 10 16 0.00 0.00
5:56 pm 17:56 Sunny 32 0 -1 -18.3 24 24 SW 10 17 30.22 1024 10 16 0.00 0.00
6:56 pm 18:56 Clear 26 -3.3 -1 -18.3 31 31 SSW 12 19 30.24 1024 10 16 0.00 0.00
7:56 pm 19:56 Clear 24 -4.4 -2 -18.9 32 32 SSW 12 19 30.23 1024 10 16 0.00 0.00
8:56 pm 20:56 Clear 23 -5 -2 -18.9 33 33 SSW 10 17 30.22 1024 10 16 0.00 0.00
9:56 pm 21:56 Clear 25 -3.9 -1 -18.3 32 32 SSW 14 22 30.20 1023 10 16 0.00 0.00
10:56 pm 22:56 Clear 25 -3.9 -1 -18.3 32 32 SSW 14 22 30.19 1022 10 16 0.00 0.00
11:56 pm 23:56 Clear 25 -3.9 1 -17.2 35 35 SW 14 22 30.18 1022 10 16 0.00 0.00

Powered by AerisWeather